[[{"header":{"parameterUnit":"m.s-1","parameterCategory":1,"la1":30.2991,"la2":30.254,"lo1":-89.0895,"lo2":-89.0444,"dy":0.0017,"dx":0.0017,"nx":28,"ny":28,"refTime":"2025-12-05T09:00:00:Z","depth":0,"parameterNumber":2,"parameterNumberName":"U-component_of_WINDS"},"data":[0,0,0,0,0,0,0,0,0,0,0,0,0,0,0,0,0,0,0,0,0,0,0,0,0,0,0,0,0,0,0,0,0,0,0,0,0,0,0,0,0,0,0,0,0,0,0,0,0,0,0,0,0,0,0,0,0,0,0.2196,0.2195,0,0.2186,0.2186,0.2186,0.2187,0.2187,0.2187,0.2187,0.2176,0.2176,0.2176,0,0,0,0,0,0,0,0,0,0,0,0,0,0.2215,0.2215,0.2196,0.2195,0.2195,0.2186,0.2186,0.2186,0.2187,0.2187,0.2187,0.2187,0.2177,0.2176,0.2176,0,0,0,0,0,0,0,0,0,0,0,0,0,0.2206,0.2215,0.2196,0.2195,0.2195,0.2186,0.2186,0.2186,0.2187,0.2187,0.2187,0.2187,0.2177,0.2176,0.2175,0.2167,0,0,0.2173,0.2173,0,0,0,0,0,0,0,0,0.2207,0.2205,0.2195,0.2195,0.2195,0.2188,0.2189,0.2179,0.2187,0.219,0.2187,0.2188,0.218,0.2179,0.2177,0.2166,0.2166,0.2173,0.2173,0.2173,0.2173,0,0,0,0,0,0,0,0.2207,0.2206,0.2192,0.2195,0.2195,0.2195,0.2194,0.2187,0.2184,0.2189,0.2189,0.2188,0.218,0.2177,0.2176,0.2166,0.2173,0.2173,0.2172,0.2172,0.2149,0.2149,0,0,0,0,0,0,0.2208,0.2206,0.2192,0.2191,0.2201,0.2194,0.2193,0.219,0.2184,0.2183,0.2188,0.2188,0.2178,0.2177,0.2176,0.2166,0.2173,0.2172,0.2172,0.2149,0.2149,0.2149,0,0,0,0,0,0,0.2208,0.2207,0.2192,0.2199,0.2197,0.2194,0.219,0.2189,0.2187,0.2183,0.2182,0.2186,0.2178,0.2177,0.217,0.2166,0.2172,0.2171,0.215,0.2149,0.2149,0.2146,0,0,0,0,0,0,0.2209,0.2207,0.2203,0.2199,0.2197,0.2186,0.219,0.2189,0.2186,0.2186,0.2181,0.218,0.2179,0.217,0.2169,0.2165,0.2171,0.215,0.215,0.2149,0.2146,0.2146,0.2145,0,0,0,0,0,0.221,0.2202,0.2203,0.2201,0.2192,0.2186,0.2184,0.2183,0.2186,0.2182,0.218,0.218,0.2167,0.217,0.2168,0.2164,0.215,0.215,0.2149,0.2147,0.2146,0.2145,0,0,0,0,0,0,0.2206,0.2202,0.2203,0.2194,0.219,0.2186,0.2181,0.2182,0.2177,0.2178,0.2176,0.2175,0.2168,0.2165,0.2168,0.2156,0.2159,0.2158,0.2158,0.2157,0.2156,0.2156,0.217,0,0,0,0,0,0.2204,0.2199,0.2196,0.2188,0.2186,0.2184,0.2181,0.2181,0.2177,0.2175,0.2172,0.2168,0.2163,0.216,0.2155,0.2147,0.2146,0.2143,0.2142,0.2142,0.2141,0.2137,0.2136,0.2147,0.2147,0.2147,0,0,0.22,0.2197,0.2194,0.2187,0.2185,0.218,0.2183,0.2177,0.2173,0.2174,0.2167,0.2165,0.2161,0.2153,0.2149,0.2151,0.2138,0.2141,0.2141,0.214,0.2136,0.2135,0.2134,0.2147,0.2147,0.2147,0,0,0.219,0.2187,0.2181,0.2179,0.2175,0.2174,0.2172,0.2168,0.2167,0.216,0.2161,0.2157,0.2148,0.2145,0.2143,0.2134,0.2134,0.2133,0.2128,0.2125,0.2124,0.2123,0.212,0.2119,0.2132,0.2132,0.2132,0,0.2185,0.2178,0.2178,0.2172,0.217,0.2171,0.2165,0.2163,0.2157,0.2156,0.2158,0.2148,0.2145,0.2137,0.2135,0.2133,0.2131,0.2133,0.2124,0.2123,0.2123,0.212,0.2119,0.2132,0.2132,0.2132,0.2132,0,0.2172,0.2167,0.2163,0.2159,0.2156,0.215,0.2149,0.2146,0.2147,0.2146,0.2139,0.2136,0.2131,0.2129,0.2129,0.2122,0.2123,0.2124,0.2127,0.2121,0.2119,0.2118,0.2131,0.2131,0.2131,0.2131,0,0,0.2158,0.2155,0.2153,0.2152,0.2149,0.2145,0.214,0.2136,0.2133,0.213,0.2126,0.212,0.2122,0.2119,0.2119,0.2115,0.211,0.2118,0.2117,0.2116,0.2102,0.21,0.2099,0.211,0.211,0.211,0.2102,0,0.2148,0.2139,0.214,0.2131,0.2127,0.213,0.2125,0.2123,0.2122,0.2119,0.2118,0.2114,0.2116,0.2115,0.2112,0.2111,0.2107,0.2111,0.2106,0.2106,0.2107,0.2098,0.2096,0.2089,0.2101,0.2101,0.2101,0,0.2134,0.2131,0.2123,0.2122,0.212,0.2116,0.2113,0.2109,0.2107,0.2107,0.2105,0.2106,0.2102,0.2105,0.2099,0.2103,0.2101,0.21,0.21,0.2099,0.2103,0.2096,0.2086,0.2085,0.2099,0.21,0.21,0,0.2124,0.2119,0.2113,0.2112,0.211,0.2108,0.2107,0.2105,0.2103,0.2101,0.2099,0.2096,0.2094,0.2092,0.2093,0.2095,0.2087,0.209,0.2086,0.2086,0.2084,0.2084,0.2073,0.2083,0.2083,0.2083,0.2083,0,0.2112,0.2107,0.2109,0.2105,0.21,0.2102,0.2096,0.2096,0.2095,0.2091,0.2093,0.209,0.2091,0.2088,0.2089,0.2084,0.2083,0.2083,0.2083,0.2082,0.2083,0.2081,0.2081,0.2083,0.2083,0.2083,0.2083,0,0.21,0.2101,0.2095,0.2095,0.2095,0.2091,0.2091,0.2088,0.2088,0.2084,0.2083,0.2084,0.2081,0.2081,0.2077,0.2078,0.2072,0.2073,0.2073,0.2073,0.2069,0.207,0.2057,0.2055,0.2067,0.2066,0.2066,0,0.2092,0.2088,0.2088,0.2087,0.2086,0.2083,0.2081,0.2083,0.2081,0.208,0.2077,0.2075,0.2072,0.2068,0.2067,0.2065,0.2066,0.2062,0.2065,0.2065,0.2066,0.2066,0.2066,0.206,0.206,0.206,0.206,0,0.2078,0.2079,0.2077,0.2075,0.2073,0.2072,0.2071,0.2069,0.2071,0.2069,0.2067,0.2065,0.2062,0.206,0.2058,0.2057,0.2059,0.2059,0.2058,0.2057,0.2058,0.2058,0.207,0.2059,0.2059,0.2059,0.2059,0.2059,0.2067,0.2065,0.2065,0.2062,0.2062,0.2061,0.2059,0.206,0.2057,0.2056,0.2057,0.2054,0.2054,0.2052,0.2051,0.2049,0.2051,0.2049,0.2049,0.2048,0.2048,0.2059,0.2049,0.2049,0.2049,0.2049,0.2049,0,0.2053,0.2054,0.2052,0.2051,0.2049,0.2052,0.2052,0.205,0.2048,0.2048,0.2046,0.2044,0.2042,0.2042,0.2041,0.2039,0.204,0.2039,0.2039,0.2039,0.2046,0.2047,0.2038,0.2038,0.2038,0.2038,0.2038,0.2038,0.2046,0.2041,0.2043,0.2039,0.204,0.2037,0.2037,0.2036,0.2036,0.2034,0.2032,0.2033,0.2034,0.2033,0.2031,0.2032,0.2031,0.2029,0.203,0.2037,0.2038,0.2039,0.204,0.2029,0.2029,0.2022,0.2022,0.2022]},{"header":{"parameterUnit":"m.s-1","parameterCategory":1,"la1":30.2991,"la2":30.254,"lo1":-89.0895,"lo2":-89.0444,"dy":0.0017,"dx":0.0017,"nx":28,"ny":28,"refTime":"2025-12-05T09:00:00:Z","depth":0,"parameterNumber":3,"parameterNumberName":"V-component_of_WINDS"},"data":[0,0,0,0,0,0,0,0,0,0,0,0,0,0,0,0,0,0,0,0,0,0,0,0,0,0,0,0,0,0,0,0,0,0,0,0,0,0,0,0,0,0,0,0,0,0,0,0,0,0,0,0,0,0,0,0,0,0,-4.7796,-4.7797,0,-4.7865,-4.7866,-4.7866,-4.7825,-4.7823,-4.7821,-4.7819,-4.7886,-4.789,-4.7893,0,0,0,0,0,0,0,0,0,0,0,0,0,-4.7625,-4.7628,-4.7796,-4.7797,-4.7797,-4.7865,-4.7866,-4.7867,-4.7825,-4.7823,-4.782,-4.7818,-4.7885,-4.7889,-4.7894,0,0,0,0,0,0,0,0,0,0,0,0,0,-4.7697,-4.7629,-4.7796,-4.7785,-4.7785,-4.7865,-4.7866,-4.7867,-4.7826,-4.7823,-4.782,-4.7817,-4.7884,-4.7889,-4.7894,-4.7987,0,0,-4.7911,-4.7913,0,0,0,0,0,0,0,0,-4.7693,-4.7703,-4.7786,-4.7786,-4.7786,-4.7833,-4.783,-4.7907,-4.7827,-4.781,-4.7819,-4.7816,-4.7871,-4.7877,-4.7897,-4.7991,-4.7993,-4.7912,-4.7915,-4.7917,-4.7919,0,0,0,0,0,0,0,-4.7688,-4.77,-4.7823,-4.7787,-4.7787,-4.7776,-4.7783,-4.7844,-4.7856,-4.7811,-4.7808,-4.7817,-4.787,-4.7891,-4.7898,-4.7994,-4.7911,-4.7916,-4.792,-4.7922,-4.8169,-4.8172,0,0,0,0,0,0,-4.7684,-4.7696,-4.7821,-4.7825,-4.7731,-4.7781,-4.7789,-4.7821,-4.7855,-4.7858,-4.782,-4.7815,-4.7884,-4.7892,-4.79,-4.8012,-4.7917,-4.7922,-4.7925,-4.8165,-4.8169,-4.8173,0,0,0,0,0,0,-4.7681,-4.7696,-4.7818,-4.776,-4.7775,-4.7787,-4.7824,-4.7824,-4.7845,-4.7862,-4.7863,-4.784,-4.7882,-4.7892,-4.7966,-4.8014,-4.7925,-4.793,-4.8162,-4.8167,-4.8171,-4.8236,0,0,0,0,0,0,-4.7676,-4.7695,-4.7731,-4.7761,-4.7778,-4.7884,-4.7826,-4.7827,-4.7855,-4.785,-4.7881,-4.7883,-4.788,-4.7959,-4.7972,-4.802,-4.7934,-4.8157,-4.8164,-4.817,-4.823,-4.8243,-4.8254,0,0,0,0,0,-4.767,-4.7745,-4.7733,-4.7748,-4.7824,-4.7887,-4.7897,-4.7893,-4.7859,-4.7895,-4.7906,-4.7882,-4.8006,-4.7966,-4.7981,-4.8031,-4.8154,-4.8162,-4.8169,-4.8225,-4.824,-4.8253,0,0,0,0,0,0,-4.7719,-4.7749,-4.7736,-4.7823,-4.7853,-4.788,-4.7925,-4.7909,-4.7948,-4.7941,-4.7934,-4.7941,-4.8019,-4.8032,-4.7987,-4.8123,-4.8075,-4.8086,-4.8112,-4.8127,-4.8139,-4.8134,-4.7938,0,0,0,0,0,-4.774,-4.779,-4.7813,-4.7888,-4.7904,-4.7913,-4.794,-4.7935,-4.7965,-4.7977,-4.7993,-4.8022,-4.8068,-4.8098,-4.8141,-4.8231,-4.8238,-4.8273,-4.8285,-4.8295,-4.8304,-4.8354,-4.837,-4.8197,-4.8197,-4.8197,0,0,-4.7784,-4.7807,-4.7839,-4.7899,-4.7921,-4.7973,-4.7923,-4.7979,-4.8018,-4.7985,-4.8056,-4.8069,-4.8101,-4.8184,-4.8222,-4.8198,-4.8353,-4.8304,-4.8312,-4.8316,-4.8363,-4.8379,-4.8394,-4.8202,-4.8201,-4.8201,0,0,-4.7891,-4.7913,-4.7978,-4.8002,-4.8038,-4.8043,-4.8058,-4.8088,-4.8096,-4.8168,-4.8145,-4.8189,-4.8268,-4.8292,-4.8314,-4.8431,-4.8411,-4.8445,-4.8507,-4.8556,-4.8569,-4.8581,-4.8624,-4.8639,-4.8454,-4.8454,-4.8454,0,-4.7941,-4.8018,-4.8014,-4.8073,-4.81,-4.8074,-4.814,-4.8163,-4.821,-4.8229,-4.8202,-4.8301,-4.832,-4.8409,-4.8438,-4.8456,-4.8474,-4.8442,-4.8568,-4.858,-4.8591,-4.8632,-4.8647,-4.8458,-4.8458,-4.8457,-4.8457,0,-4.8078,-4.8133,-4.8181,-4.8229,-4.8261,-4.8323,-4.8328,-4.8361,-4.8352,-4.836,-4.8434,-4.8457,-4.8504,-4.8524,-4.8516,-4.8612,-4.8597,-4.8569,-4.852,-4.8612,-4.865,-4.8665,-4.8464,-4.8463,-4.8461,-4.846,0,0,-4.8218,-4.8263,-4.8281,-4.8303,-4.834,-4.8382,-4.8442,-4.849,-4.8519,-4.8552,-4.8603,-4.867,-4.8645,-4.8671,-4.8665,-4.8708,-4.88,-4.8675,-4.8675,-4.8698,-4.8908,-4.8929,-4.8947,-4.8786,-4.8789,-4.8791,-4.8905,0,-4.8327,-4.8435,-4.8433,-4.8533,-4.8583,-4.8559,-4.8612,-4.864,-4.8649,-4.8692,-4.8701,-4.8749,-4.8712,-4.8728,-4.8769,-4.878,-4.8842,-4.8771,-4.8833,-4.8835,-4.8827,-4.8967,-4.8989,-4.9096,-4.892,-4.8922,-4.8924,0,-4.847,-4.851,-4.8615,-4.8646,-4.8667,-4.8715,-4.8759,-4.88,-4.8832,-4.8835,-4.8864,-4.8852,-4.8913,-4.8862,-4.8946,-4.8898,-4.8923,-4.8932,-4.8936,-4.8942,-4.8886,-4.8977,-4.913,-4.9146,-4.8947,-4.8945,-4.8944,0,-4.8562,-4.8642,-4.8716,-4.8735,-4.8772,-4.8807,-4.8824,-4.8852,-4.8881,-4.8919,-4.8938,-4.8982,-4.9006,-4.904,-4.904,-4.9003,-4.9125,-4.9074,-4.9129,-4.9129,-4.9156,-4.9155,-4.9316,-4.9171,-4.9171,-4.9171,-4.917,0,-4.8685,-4.8751,-4.8758,-4.8803,-4.8876,-4.8872,-4.8944,-4.8957,-4.8983,-4.903,-4.9011,-4.9055,-4.9052,-4.9096,-4.9096,-4.9166,-4.9176,-4.918,-4.918,-4.9183,-4.9182,-4.9199,-4.9192,-4.9175,-4.9174,-4.9173,-4.9172,0,-4.8801,-4.8808,-4.8887,-4.8917,-4.8926,-4.8978,-4.9003,-4.9046,-4.9053,-4.9113,-4.9127,-4.9138,-4.9189,-4.9192,-4.9251,-4.9251,-4.9336,-4.9326,-4.9326,-4.9324,-4.938,-4.9375,-4.9558,-4.9582,-4.9421,-4.9423,-4.9424,0,-4.888,-4.893,-4.8966,-4.8997,-4.9016,-4.9066,-4.9096,-4.9094,-4.9126,-4.9166,-4.9204,-4.9254,-4.9294,-4.9377,-4.939,-4.9435,-4.9427,-4.9488,-4.9433,-4.9435,-4.9429,-4.9426,-4.9431,-4.9499,-4.95,-4.9502,-4.9503,0,-4.9019,-4.9021,-4.9066,-4.9113,-4.9149,-4.9186,-4.9219,-4.9245,-4.9247,-4.9284,-4.9337,-4.9369,-4.9429,-4.9479,-4.9523,-4.9539,-4.9522,-4.952,-4.9535,-4.9539,-4.9538,-4.954,-4.9356,-4.9516,-4.9515,-4.9514,-4.9513,-4.9512,-4.9119,-4.9163,-4.9196,-4.9247,-4.9272,-4.9304,-4.9347,-4.936,-4.9405,-4.9455,-4.9451,-4.951,-4.954,-4.9598,-4.9617,-4.9663,-4.9642,-4.9664,-4.967,-4.9675,-4.9682,-4.953,-4.9671,-4.967,-4.967,-4.967,-4.9669,0,-4.9258,-4.9279,-4.9325,-4.9374,-4.9414,-4.9395,-4.9432,-4.9466,-4.9519,-4.9549,-4.959,-4.9651,-4.9699,-4.9716,-4.9763,-4.9796,-4.979,-4.9809,-4.9807,-4.9811,-4.9697,-4.968,-4.9814,-4.9814,-4.9814,-4.9814,-4.9814,-4.9814,-4.9336,-4.941,-4.9415,-4.9501,-4.952,-4.9579,-4.9602,-4.9631,-4.9655,-4.9726,-4.9766,-4.9777,-4.9802,-4.9851,-4.9894,-4.9898,-4.9916,-4.9939,-4.9939,-4.9833,-4.9819,-4.9805,-4.9789,-4.9943,-4.9943,-5.0049,-5.005,-5.0051]}]]